Torna al catalogo

CZ-2D DEB

AttivoPO
NORAD 44619·DEBRIS·🇨🇳 China

Lanciato Jun 2, 2018 da Jiuquan Satellite Launch Center

Loading…

Prossimi Passaggi (prossime 24 ore)

TLE

AggiornatoSource: Space-Track

Epoca: Sep 14, 2026, 08:48 UTC

1 44619U 18048F   26257.36703915  .00003072  00000-0  22144-3 0  9999
2 44619  98.2825 111.2281 0010124 277.4964  82.5110 15.04971499445068

Traccia CZ-2D DEB in tempo reale con AllMySat

Download on the App Store